Starlink 36485

operational
NORAD ID: 67312 Int'l Des: 2026-002 Owner: SPXS Country: US Constellation: starlink
NOTLE

About Starlink 36485

Description loading...

Live Position

Loading 3D Globe...

Upcoming Passes

Altitude History

Altitude vs Time

uPlot chart will show altitude changes over time

Two-Line Element Set

1 67312U 26002H 26041.25002315 -.02380307 00000-0 -85739-1 0 9998
2 67312 42.9991 119.8851 0000863 303.7485 155.3165 15.31756235 5969
Epoch: Feb 10, 2026 • Age: 10 hours

Current Status

Altitude 477.9 km
Velocity 7.63 km/s
Sub-Earth Point 29.07°N, 112.74°W
Launch Date Jan 4, 2026
Age 0.1 years
Type internet

Technical Details

Classification Payload
Mass 575.00 kg
Dry Mass 530.00 kg
Total Mass 575.00 kg
Length 0.30 m
Diameter 4.10 m
Span 29.00 m
Shape Box + pan
Manufacturer SPXS
Bus Type Starlink V2MO
Phase Status In Orbit
Owner/State SPXS/US

Large Constellations

Loading constellations...